User: anonymous
Location: Unspecified
(0.0000°N, 0.0000°E)
Time: 05:44:53
(UTC+02:00)
Language:

Atlas Centaur 2 - Orbit

View from above orbital plane
View from above orbital plane
View from above satellite
View from above satellite

Ground track
Ground track

The orbit data is extracted from the following two-line orbital elements,

1 00694U 63047A   14211.46473966  .00001443  00000-0  17794-3 0  5587
2 00694 030.3594 189.1156 0598053 270.1577 245.8294 13.99566939534955
Epoch (UTC): 30 July 2014 11:09:13
Eccentricity: 0.0598053
inclination: 30.3594°
perigee height: 460 km
apogee height: 1330 km
right ascension of ascending node: 189.1156°
argument of perigee: 270.1577°
revolutions per day: 13.99566939
mean anomaly at epoch: 245.8294°
orbit number at epoch: 53495

The dashed part of the orbit path shows where the satellite is in the earth's shadow,  

DLR